Location: Cheyres
(46.8153°N, 6.7877°E)
Time: 17:54:27
(UTC+00:00)

Tiros 1 - Visible Passes

Search period start: 26 May 2022 00:00
Search period end: 05 June 2022 00:00
Orbit: 629 x 663 km, 48.4° (Epoch: 25 May)

Date Brightness Start Highest point End Pass type
(mag) Time Alt. Az. Time Alt. Az. Time Alt. Az.
26 May 7.2 00:55:57 45° SSW 00:56:58 57° SSE 01:01:34 10° ENE visible
26 May 7.3 02:34:28 10° W 02:39:08 75° N 02:43:51 10° E visible
26 May 8.5 23:42:24 24° ESE 23:42:24 24° ESE 23:44:54 10° E visible
27 May 7.0 01:20:01 25° WSW 01:22:40 85° SSE 01:27:22 10° ENE visible
27 May 7.4 03:00:20 10° W 03:05:00 73° N 03:09:43 10° E visible
28 May 7.2 00:06:22 53° SSE 00:06:22 53° SSE 00:10:53 10° ENE visible
28 May 7.2 01:43:58 11° W 01:48:28 76° N 01:53:10 10° E visible
28 May 8.9 22:52:39 18° E 22:52:39 18° E 22:54:11 10° E visible
29 May 7.0 00:30:13 37° WSW 00:32:01 82° SSE 00:36:42 10° ENE visible
29 May 7.4 02:09:41 10° W 02:14:20 72° N 02:19:02 10° E visible
29 May 7.4 23:16:21 46° SE 23:16:21 46° SE 23:20:13 10° ENE visible
30 May 7.2 00:53:55 15° W 00:57:49 77° N 01:02:30 10° ENE visible
30 May 7.2 02:35:31 10° WNW 02:40:11 82° NNE 02:44:54 10° E visible
30 May 9.0 22:02:13 16° E 22:02:13 16° E 22:03:28 10° E visible
30 May 6.9 23:39:46 41° WSW 23:41:22 79° SSE 23:46:02 10° ENE visible
31 May 7.3 01:19:02 10° W 01:23:40 72° N 01:28:20 10° E visible
31 May 7.1 03:01:17 10° WNW 03:05:57 74° SSW 03:10:38 10° ESE visible
31 May 7.2 22:25:00 47° SSE 22:25:05 47° SSE 22:29:32 10° ENE visible
01 Jun 7.1 00:02:30 10° W 00:07:09 79° N 00:11:49 10° ENE visible
01 Jun 7.2 01:44:51 10° WNW 01:49:31 80° N 01:54:12 10° E visible
01 Jun 8.1 21:05:18 10° SSW 21:09:00 24° SE 21:12:44 10° E visible
01 Jun 6.9 22:46:06 10° WSW 22:50:43 76° SSE 22:55:21 10° ENE visible
02 Jun 7.3 00:28:22 10° W 00:33:00 72° N 00:37:39 10° E visible
02 Jun 7.0 02:10:38 10° WNW 02:15:17 77° SSW 02:19:58 10° ESE visible
02 Jun 7.3 21:30:04 10° SW 21:34:26 44° SSE 21:38:51 10° ENE visible
02 Jun 7.1 23:11:51 10° W 23:16:28 81° N 23:21:08 10° ENE visible
03 Jun 7.2 00:54:12 10° WNW 00:58:50 78° N 01:03:31 10° E visible
03 Jun 7.3 02:36:27 10° WNW 02:40:56 49° SSW 02:45:27 10° SE visible
03 Jun 8.2 20:14:48 10° SSW 20:18:23 23° SE 20:21:59 10° E visible
03 Jun 6.9 21:55:28 10° WSW 22:00:03 72° SSE 22:04:41 10° ENE visible
03 Jun 7.3 23:37:41 10° W 23:42:19 72° N 23:46:58 10° E visible
04 Jun 7.0 01:19:58 10° WNW 01:24:38 81° SSW 01:29:18 10° ESE visible
04 Jun 8.0 03:02:28 10° W 03:06:24 27° SW 03:10:21 10° SSE visible
04 Jun 7.5 20:39:28 10° SW 20:43:48 41° SSE 20:48:09 10° E visible
04 Jun 7.1 22:21:10 10° W 22:25:48 83° N 22:30:27 10° ENE visible
